Tracking 22879 objects as of 21-Apr-2021
HD Live streaming from Space Station
objects crossing your sky now

DELTA 1 DEB

Track DELTA 1 DEB now!
10-day predictions


NORAD ID: 7026
Int'l Code: 1973-086S
Perigee: 1,322.8 km
Apogee: 1,518.8 km
Inclination: 102.1 °
Period: 114.1 minutes
Semi major axis: 7791 km
RCS: 0.0707 m2 (small)
Launch date: November 6, 1973
Source: United States (US)
Launch site: AIR FORCE WESTERN TEST RANGE (AFWTR)

Note: This is SATELLITE DEBRIS
aabbcc
Your satellite tracking list
Your tracking list is empty




NASA's NSSDC Master Catalog

Two Line Element Set (TLE):
1 07026U 73086S   21111.53904792  .00000291  00000-0  18407-2 0  9998
2 07026 102.1438 131.7830 0125772 184.9480 328.9592 12.62257776176969
Source of the keplerian elements: AFSPC